Flag Weather past 2 weeks in Hadera, Israel

Now
75 °F

Scattered clouds.


Feels Like: 77 °F
Forecast: 66 / 73 °F
Wind: 10 mph from Southwest

Location: Dov Airport

Current Time: Oct 30, 2014 at 4:10:06 PM

Latest Report: Oct 30, 2014 at 2:50 PM


Visibility: N/A

Pressure: 29.89 "Hg

Humidity: 61%

Dew point: 61 °F

Location of HaderaLocation

Historic Weather in Hadera — Graph

°F

Hadera temperature yesterday

Maximum temperature yesterday: 79 °F (at 8:50 AM)
Minimum temperature yesterday: 66 °F (at 5:50 AM)
Average temperature yesterday: 75 °F

Past Weeks' High & Low Weather Summary

 TemperatureHumidityPressure
High82 °F (Oct 18, 12:50 PM)94% (Oct 19, 5:50 PM)30.12 "Hg (Oct 19, 5:50 PM)
Low63 °F (Oct 21, 5:50 AM)37% (Oct 22, 9:50 AM)29.71 "Hg (Oct 19, 2:50 PM)
Average75 °F61%29.95 "Hg
* Reported Oct 15 3:50 PM — Oct 30 2:50 PM, Hadera, Weather by CustomWeather, © 2014

Note: Actual official high and low records may vary slightly from our data, if they occured in-between our weather recording intervals... More about our weather records

Advertising

Hadera weather history for previous 24 hours

 ConditionsComfort  
Time TempWeatherWind HumidityBarometerVisibility
2:50 PM
Oct 30
75 °FScattered clouds.10 mph61%29.89 "HgN/A
1:50 PM79 °FPassing clouds.9 mph54%29.89 "HgN/A
12:50 PM77 °FPassing clouds.9 mph54%29.92 "HgN/A
11:50 AM77 °FScattered clouds.7 mph61%29.92 "HgN/A
10:50 AM79 °FScattered clouds.5 mph61%29.95 "HgN/A
9:50 AM77 °FScattered clouds.7 mph61%29.95 "HgN/A
8:50 AM77 °FPassing clouds.3 mph61%29.98 "HgN/A
7:50 AM73 °FPassing clouds.3 mph65%29.95 "HgN/A
6:50 AM68 °FScattered clouds.3 mph78%29.95 "HgN/A
5:50 AM66 °FPassing clouds.3 mph83%29.92 "HgN/A
4:50 AM68 °FPassing clouds.3 mph83%29.92 "HgN/A
4:00 AM68 °FPassing clouds.3 mph88%29.92 "HgN/A
10:50 PM
Oct 29
72 °FPassing clouds.3 mph65%29.98 "HgN/A
9:50 PM73 °FPassing clouds.5 mph61%29.98 "HgN/A
8:50 PM75 °FPassing clouds.7 mph57%29.98 "HgN/A
7:50 PM75 °FPassing clouds.6 mph61%29.98 "HgN/A
6:50 PM75 °FPassing clouds.8 mph61%29.95 "HgN/A
5:50 PM75 °FPassing clouds.7 mph61%29.95 "HgN/A
4:50 PM75 °FScattered clouds.9 mph57%29.95 "HgN/A
Weather by CustomWeather, © 2014

See weather overviewHow to use our weather pages